Regional Weather Roundup
Issued by NWS

Home | Current Version | Previous Version | Graphics & Text | Print | Product List | Glossary On
Versions: 1 2 3 4 5 6 7 8 9 10 11 12 13 14 15 16 17 18 19 20 21 22 23 24 25 26 27 28 29 30 31 32 33 34 35 36 37 38 39 40 41 42 43 44 45 46 47 48 49 50
000
ASUS43 KTOP 231108
RWRKS

WEATHER ROUNDUP FOR KANSAS
NATIONAL WEATHER SERVICE GOODLAND KS
600 AM CDT SAT JUL 23 2016

NOTE:  "FAIR" INDICATES FEW OR NO CLOUDS BELOW 12,000 FEET WITH NO
SIGNIFICANT WEATHER AND/OR OBSTRUCTIONS TO VISIBILITY.

KSZ001>006-013>018-027>032-041>047-231200-
NORTHWEST KANSAS

CITY           SKY/WX    TMP DP  RH WIND       PRES   REMARKS
GOODLAND       CLOUDY    68  64  87 SE10      29.96S
HAYS           CLOUDY    79  63  57 CALM      29.96S
HILL CITY      LGT RAIN  73  68  84 SE6       29.97S
RUSSELL        CLOUDY    79  62  56 SW5       29.94F
$$

KSZ061>065-074>080-084>089-231200-
SOUTHWEST KANSAS

CITY           SKY/WX    TMP DP  RH WIND       PRES   REMARKS
DODGE CITY     CLOUDY    74  61  63 S13       29.95F
ELKHART          N/A     77  53  43 S10         N/A
GARDEN CITY    CLOUDY    70  61  73 SE12      29.94F
GREAT BEND     CLOUDY    81  61  50 SW10      29.94R
LIBERAL        CLOUDY    72  57  60 S12       29.98F
PRATT          PTCLDY    73  62  68 S9        29.96S
$$

KSZ066>073-081>083-090>101-231200-
SOUTHEAST KANSAS

CITY           SKY/WX    TMP DP  RH WIND       PRES   REMARKS
CHANUTE        CLEAR     75  72  90 SE6       29.96S
COFFEYVILLE    CLEAR     76  71  85 SE5       29.95S
HUTCHINSON     CLEAR     75  66  73 SE7       29.93S
MEDICINE LODGE   N/A     75  64  68 SE6       29.94S
NEWTON         CLOUDY    79  67  66 S10       29.95S
PARSONS        CLEAR     77  71  82 SE3       29.97S
WICHITA INTL   PTCLDY    75  66  73 S8        29.93F
WICHITA JABRA  CLEAR     74  68  81 S7        29.94S
WICHITA MCCONL CLEAR     76  67  73 S6        29.94F
WINFIELD       CLEAR     74  68  81 S6        29.96F
$$

KSZ007>012-019>026-033>040-048>060-102>105-231200-
NORTHEAST KANSAS

CITY           SKY/WX    TMP DP  RH WIND       PRES   REMARKS
CONCORDIA      MOCLDY    72  69  90 SE8       29.93F
EMPORIA        CLEAR     76  70  82 S9        29.93F
LAWRENCE       CLOUDY    76  73  91 SE6       29.93F
MANHATTAN      PTCLDY    82  68  62 W8        29.92R
MARYSVILLE     CLOUDY    81  70  69 CALM      29.92S
OLATHE IND     CLEAR     76  72  87 S8        29.96S
OLATHE EXE     CLEAR     75  71  87 S6        29.96S
SALINA         CLOUDY    83  65  54 NW15      29.96R
TOPEKA BILLARD CLOUDY    82  70  66 VRB5      29.92S
TOPEKA FORBES  CLOUDY    81  71  71 S8        29.93S
$$



USA.gov is the U.S. government's official web portal to all federal, state and local government web resources and services.